STARLINK-32495, 62052

Orbit data source: Space-Track

STARLINK-32495, 62052 is a payload satellite owned by SpaceX/Seattle (US) in LEO that was launched on Thu, 21 Nov 2024 UTC via an FALCON 9 launch vehicle from the Air Force Eastern Test Range (AFETR). Payload-class satellites include a variety of spacecraft equipped with specific instruments for various scientific and technological missions. These include communications satellites like Starlink; space stations such as the ISS; scientific satellites like the Hubble; Earth observation satellites from companies like Planet Labs, Umbra, and HawkEye 360; GPS; miniature CubeSats for education and research; and military/defense satellites.

Loading next visibility...
Identifier
62052, 2024-216W
Orbit
LEO
Country
Flag of USUS
Related business
Manufacturer
SpaceX/Seattle
Mission
Operational Commercial Communications
Bus & Motor
STARLINK V2M, Unknown motor
Mass
730 kg wet, ~700 kg dry
Launch date (UTC)
2024-11-21 (9 months ago)
Launch vehicle
FALCON 9
Launch site
Air Force Eastern Test Range (AFETR)
Object type
Payload
Rocket body
Debris
Shape & HBR
Box + 2 Pan, 14.5 m
Radar Cross Section
36.964 m², Large (>1 m²)

Expand to show TLE details & history
Last TLE update: 21 hours ago

TLE from 21 hours ago
0 STARLINK-32495
1 62052U 24216W   25242.34057439  .00025464  00000-0  93137-3 0  9997
2 62052  42.9940 263.6723 0000913 122.4462 237.6478 15.27590469 44539
Epoch: 2025-08-30T08:10Z
TLE epoch observation values (Epoch: 2025-08-30T08:10:25.627Z)
Latitude
-0°
Longitude
162.28925°
Altitude
483.128 km
Speed
7.625 km/s
True Right ascension
17h 34m 41s
True Declination
0° 00' 00"
Sunlit
Object was in daylight at epoch
Visualization orbit readout
Latitude
Unknown
Longitude
Unknown
Altitude
Unknown
Speed
Unknown
Apparent Right ascension
Unknown
Apparent Declination
Unknown
Sunlit
N/A
Visualization observer readout
Local Sidereal Time
20:48:56
Azimuth
Unknown
Elevation
Unknown
Doppler factor
Unknown
Orbital elements
Apogee altitude
485.591 km
Perigee altitude
484.337 km
Semi-major axis
6,863.101 km
Eccentricity
0.00009
Inclination
42.994°
RAAN
263.6723°
Arg. of periapsis
122.4462°
True anomaly
237.63896°
Mean anomaly
237.6478°
Eccentric anomaly
237.64338°
Mean motion
3.81736 °/min
Orbital period
94.31 mins
BSTAR
0.00093137
Loading maneuver chart data...
Computing Atmospheric mass density...
Loading historical data...
Loading historical data...
Loading historical data...
Loading historical data...
Loading historical data...
Loading historical data...
Loading historical data...

Documentation

Showing up to 5 results
|